timestamp,wind_dir_avg,wind_spd_avg,wind_spd_max_dir,wind_spd_gust,battery_voltage,lat,long
2022-12-19 00:04:00+00:00,67.0,13.96,59.0,17.82,12.25,47.59359,-54.27349
2022-12-19 00:14:00+00:00,68.0,14.04,75.0,17.51,12.25,47.59359,-54.27349
2022-12-19 00:24:00+00:00,74.0,11.46,71.0,16.22,12.25,47.59359,-54.27349
2022-12-19 00:34:00+00:00,71.0,12.68,77.0,16.09,12.25,47.59359,-54.27349
2022-12-19 00:44:00+00:00,68.0,11.72,76.0,15.15,12.25,47.59359,-54.27349
2022-12-19 00:54:00+00:00,66.0,12.59,68.0,16.21,12.25,47.59359,-54.27349
2022-12-19 01:04:00+00:00,66.0,11.39,61.0,13.59,12.25,47.59359,-54.27349
2022-12-19 01:14:01+00:00,69.0,11.23,54.0,13.7,12.17,47.59359,-54.27349
2022-12-19 01:24:01+00:00,67.0,12.31,72.0,14.6,12.17,47.59359,-54.27349
2022-12-19 01:34:01+00:00,69.0,11.38,68.0,12.96,12.17,47.59359,-54.27349
2022-12-19 01:44:01+00:00,68.0,12.34,71.0,16.96,12.17,47.59359,-54.27349
2022-12-19 01:54:01+00:00,69.0,12.35,74.0,15.06,12.17,47.59359,-54.27349
2022-12-19 02:04:01+00:00,67.0,12.65,71.0,15.4,12.17,47.59359,-54.27349
2022-12-19 02:14:00+00:00,67.0,14.09,72.0,16.61,12.25,47.59359,-54.27349
2022-12-19 02:24:00+00:00,70.0,12.53,69.0,16.41,12.25,47.59359,-54.27349
2022-12-19 02:34:00+00:00,70.0,12.22,70.0,15.15,12.25,47.59359,-54.27349
2022-12-19 02:44:00+00:00,68.0,10.62,68.0,12.04,12.25,47.59359,-54.27349
2022-12-19 02:54:00+00:00,69.0,11.3,69.0,13.21,12.25,47.59359,-54.27349
2022-12-19 03:04:00+00:00,69.0,11.77,74.0,16.02,12.25,47.59359,-54.27349
2022-12-19 03:14:00+00:00,67.0,10.59,63.0,12.67,12.25,47.59359,-54.27349
2022-12-19 03:24:00+00:00,70.0,12.98,74.0,15.65,12.25,47.59359,-54.27349
2022-12-19 03:34:00+00:00,67.0,13.27,76.0,16.71,12.25,47.59359,-54.27349
2022-12-19 03:44:00+00:00,69.0,13.34,73.0,17.35,12.25,47.59359,-54.27349
2022-12-19 03:54:00+00:00,70.0,12.58,68.0,17.81,12.25,47.59359,-54.27349
2022-12-19 04:04:00+00:00,70.0,12.08,69.0,13.76,12.25,47.59359,-54.27349
2022-12-19 04:14:00+00:00,67.0,14.06,66.0,17.11,12.17,47.59359,-54.27349
2022-12-19 04:24:00+00:00,69.0,14.01,71.0,16.69,12.17,47.59359,-54.27349
2022-12-19 04:34:00+00:00,68.0,13.04,67.0,18.24,12.17,47.59359,-54.27349
2022-12-19 04:44:00+00:00,71.0,12.62,65.0,14.62,12.17,47.59359,-54.27349
2022-12-19 04:54:00+00:00,71.0,12.48,72.0,15.58,12.17,47.59359,-54.27349
2022-12-19 05:04:00+00:00,70.0,11.7,67.0,14.64,12.17,47.59359,-54.27349
2022-12-19 05:14:00+00:00,69.0,13.03,70.0,18.01,12.17,47.59359,-54.27349
2022-12-19 05:24:00+00:00,69.0,12.35,67.0,17.13,12.17,47.59359,-54.27349
2022-12-19 05:34:00+00:00,74.0,11.6,73.0,17.39,12.17,47.59359,-54.27349
2022-12-19 05:44:00+00:00,71.0,11.41,69.0,18.51,12.17,47.59359,-54.27349
2022-12-19 05:54:00+00:00,73.0,11.84,72.0,17.86,12.17,47.59359,-54.27349
2022-12-19 06:04:00+00:00,71.0,11.71,67.0,15.02,12.17,47.59359,-54.27349
2022-12-19 06:14:00+00:00,74.0,11.77,76.0,17.59,12.17,47.59359,-54.27349
2022-12-19 06:24:00+00:00,75.0,10.79,87.0,15.54,12.17,47.59359,-54.27349
2022-12-19 06:34:00+00:00,73.0,12.24,66.0,17.62,12.17,47.59359,-54.27349
2022-12-19 06:44:00+00:00,71.0,10.52,74.0,16.16,12.17,47.59359,-54.27349
2022-12-19 06:54:00+00:00,71.0,12.73,68.0,17.84,12.17,47.59359,-54.27349
2022-12-19 07:04:00+00:00,70.0,12.48,62.0,17.19,12.17,47.59359,-54.27349
2022-12-19 07:14:00+00:00,73.0,11.53,79.0,15.85,12.17,47.59359,-54.27349
2022-12-19 07:24:00+00:00,73.0,11.98,75.0,17.22,12.17,47.59359,-54.27349
2022-12-19 07:34:00+00:00,72.0,11.88,70.0,17.66,12.17,47.59359,-54.27349
2022-12-19 07:44:00+00:00,72.0,11.05,75.0,15.66,12.17,47.59359,-54.27349
2022-12-19 07:54:00+00:00,71.0,12.8,74.0,17.46,12.17,47.59359,-54.27349
2022-12-19 08:04:00+00:00,72.0,11.39,64.0,15.3,12.17,47.59359,-54.27349
2022-12-19 08:14:01+00:00,75.0,10.56,67.0,15.69,12.17,47.59359,-54.27349
2022-12-19 08:24:01+00:00,75.0,11.73,64.0,16.17,12.17,47.59359,-54.27349
2022-12-19 08:34:01+00:00,72.0,11.19,73.0,14.31,12.17,47.59359,-54.27349
2022-12-19 08:44:01+00:00,72.0,11.01,62.0,14.9,12.17,47.59359,-54.27349
2022-12-19 08:54:01+00:00,76.0,10.57,71.0,16.57,12.17,47.59359,-54.27349
2022-12-19 09:04:01+00:00,74.0,11.06,71.0,16.3,12.17,47.59359,-54.27349
2022-12-19 09:14:00+00:00,80.0,10.86,71.0,14.93,12.17,47.59359,-54.27349
2022-12-19 09:24:00+00:00,74.0,10.28,75.0,13.44,12.17,47.59359,-54.27349
2022-12-19 09:34:00+00:00,76.0,12.04,73.0,17.08,12.17,47.59359,-54.27349
2022-12-19 09:44:00+00:00,74.0,12.43,69.0,16.75,12.17,47.59359,-54.27349
2022-12-19 09:54:00+00:00,74.0,12.57,65.0,17.9,12.17,47.59359,-54.27349
2022-12-19 10:04:00+00:00,71.0,12.02,79.0,17.04,12.17,47.59359,-54.27349
2022-12-19 10:14:00+00:00,72.0,15.08,69.0,18.88,12.17,47.59359,-54.27349
2022-12-19 10:24:00+00:00,74.0,12.91,62.0,18.66,12.17,47.59359,-54.27349
2022-12-19 10:34:00+00:00,77.0,12.64,73.0,17.93,12.17,47.59359,-54.27349
2022-12-19 10:44:00+00:00,73.0,13.76,73.0,18.53,12.17,47.59359,-54.27349
2022-12-19 10:54:00+00:00,76.0,9.09,74.0,15.45,12.17,47.59359,-54.27349
2022-12-19 11:04:00+00:00,71.0,12.14,76.0,17.82,12.17,47.59359,-54.27349
2022-12-19 11:14:00+00:00,73.0,11.39,77.0,17.43,12.09,47.59359,-54.27349
2022-12-19 11:24:00+00:00,77.0,11.08,65.0,18.61,12.09,47.59359,-54.27349
2022-12-19 11:34:00+00:00,74.0,9.61,71.0,17.2,12.09,47.59359,-54.27349
2022-12-19 11:44:00+00:00,77.0,8.78,62.0,12.85,12.09,47.59359,-54.27349
2022-12-19 11:54:00+00:00,71.0,10.55,63.0,17.61,12.09,47.59359,-54.27349
2022-12-19 12:04:00+00:00,71.0,10.83,68.0,17.12,12.09,47.59359,-54.27349
2022-12-19 12:14:00+00:00,70.0,10.93,68.0,17.19,12.09,47.59359,-54.27349
2022-12-19 12:24:00+00:00,70.0,9.93,67.0,15.48,12.09,47.59359,-54.27349
2022-12-19 12:34:00+00:00,76.0,8.25,66.0,11.62,12.09,47.59359,-54.27349
2022-12-19 12:44:00+00:00,73.0,10.92,74.0,16.42,12.09,47.59359,-54.27349
2022-12-19 12:54:00+00:00,75.0,10.55,58.0,17.89,12.09,47.59359,-54.27349
2022-12-19 13:04:00+00:00,73.0,11.36,68.0,16.52,12.09,47.59359,-54.27349
2022-12-19 13:14:00+00:00,80.0,7.97,66.0,12.37,12.09,47.59359,-54.27349
2022-12-19 13:24:00+00:00,79.0,9.28,112.0,15.57,12.09,47.59359,-54.27349
2022-12-19 13:34:00+00:00,76.0,10.06,74.0,16.27,12.09,47.59359,-54.27349
2022-12-19 13:44:00+00:00,69.0,11.1,65.0,17.36,12.09,47.59359,-54.27349
2022-12-19 13:54:00+00:00,71.0,9.61,70.0,12.94,12.09,47.59359,-54.27349
2022-12-19 14:04:00+00:00,78.0,8.86,78.0,15.02,12.09,47.59359,-54.27349
2022-12-19 14:14:00+00:00,68.0,11.01,72.0,14.21,12.17,47.59359,-54.27349
2022-12-19 14:24:00+00:00,68.0,9.08,74.0,11.98,12.17,47.59359,-54.27349
2022-12-19 14:34:00+00:00,74.0,10.51,68.0,15.55,12.17,47.59359,-54.27349
2022-12-19 14:44:00+00:00,77.0,7.71,70.0,10.83,12.17,47.59359,-54.27349
2022-12-19 14:54:00+00:00,73.0,10.44,67.0,14.24,12.17,47.59359,-54.27349
2022-12-19 15:04:00+00:00,71.0,12.77,68.0,16.78,12.17,47.59359,-54.27349
2022-12-19 15:14:00+00:00,73.0,10.4,76.0,17.21,12.25,47.59359,-54.27349
2022-12-19 15:24:00+00:00,71.0,11.31,70.0,18.38,12.25,47.59359,-54.27349
2022-12-19 15:34:00+00:00,75.0,10.08,69.0,16.37,12.25,47.59359,-54.27349
2022-12-19 15:44:00+00:00,75.0,8.38,72.0,15.4,12.25,47.59359,-54.27349
2022-12-19 15:54:00+00:00,79.0,9.21,97.0,16.71,12.25,47.59359,-54.27349
2022-12-19 16:04:00+00:00,72.0,9.15,73.0,12.96,12.25,47.59359,-54.27349
2022-12-19 16:14:00+00:00,80.0,9.07,104.0,14.28,12.33,47.59359,-54.27349
2022-12-19 16:24:00+00:00,72.0,9.01,67.0,15.2,12.33,47.59359,-54.27349
2022-12-19 16:34:00+00:00,81.0,8.16,70.0,11.5,12.33,47.59359,-54.27349
2022-12-19 16:44:00+00:00,77.0,7.99,75.0,12.76,12.33,47.59359,-54.27349
2022-12-19 16:54:00+00:00,77.0,9.16,80.0,15.21,12.33,47.59359,-54.27349
2022-12-19 17:04:00+00:00,80.0,7.39,61.0,8.87,12.33,47.59359,-54.27349
2022-12-19 17:14:00+00:00,77.0,8.16,90.0,14.3,12.81,47.59359,-54.27349
2022-12-19 17:24:00+00:00,79.0,7.26,89.0,11.25,12.81,47.59359,-54.27349
2022-12-19 17:34:00+00:00,84.0,8.43,84.0,16.58,12.81,47.59359,-54.27349
2022-12-19 17:44:00+00:00,80.0,7.93,103.0,11.71,12.81,47.59359,-54.27349
2022-12-19 17:54:00+00:00,77.0,8.81,79.0,16.61,12.81,47.59359,-54.27349
2022-12-19 18:04:00+00:00,87.0,8.84,98.0,15.92,12.81,47.59359,-54.27349
2022-12-19 18:14:00+00:00,86.0,8.41,85.0,15.89,12.81,47.59359,-54.27349
2022-12-19 18:24:00+00:00,87.0,7.8,92.0,15.59,12.81,47.59359,-54.27349
2022-12-19 18:34:00+00:00,79.0,8.1,76.0,12.28,12.81,47.59359,-54.27349
2022-12-19 18:44:00+00:00,81.0,7.82,72.0,11.18,12.81,47.59359,-54.27349
2022-12-19 18:54:00+00:00,82.0,8.87,84.0,15.8,12.81,47.59359,-54.27349
2022-12-19 19:04:00+00:00,82.0,8.46,67.0,12.28,12.81,47.59359,-54.27349
2022-12-19 19:14:00+00:00,83.0,7.25,82.0,10.25,12.49,47.59359,-54.27349
2022-12-19 19:24:00+00:00,81.0,7.81,68.0,10.7,12.49,47.59359,-54.27349
2022-12-19 19:34:00+00:00,82.0,8.44,93.0,11.54,12.49,47.59359,-54.27349
2022-12-19 19:44:00+00:00,80.0,7.41,93.0,12.29,12.49,47.59359,-54.27349
2022-12-19 19:54:00+00:00,80.0,7.13,80.0,10.45,12.49,47.59359,-54.27349
2022-12-19 20:04:00+00:00,79.0,8.22,74.0,12.56,12.49,47.59359,-54.27349
2022-12-19 20:14:00+00:00,82.0,6.9,83.0,10.41,12.33,47.59359,-54.27349
2022-12-19 20:24:00+00:00,82.0,7.6,84.0,15.24,12.33,47.59359,-54.27349
2022-12-19 20:34:00+00:00,81.0,7.1,87.0,10.06,12.33,47.59359,-54.27349
2022-12-19 20:44:00+00:00,83.0,7.09,80.0,10.29,12.33,47.59359,-54.27349
2022-12-19 20:54:00+00:00,85.0,7.36,54.0,12.41,12.33,47.59359,-54.27349
2022-12-19 21:04:00+00:00,82.0,8.29,88.0,11.94,12.33,47.59359,-54.27349
2022-12-19 21:14:00+00:00,82.0,6.98,79.0,11.39,12.17,47.59359,-54.27349
2022-12-19 21:24:00+00:00,77.0,5.92,96.0,9.43,12.17,47.59359,-54.27349
2022-12-19 21:34:00+00:00,81.0,5.55,74.0,8.94,12.17,47.59359,-54.27349
2022-12-19 21:44:00+00:00,78.0,7.36,120.0,10.79,12.17,47.59359,-54.27349
2022-12-19 21:54:00+00:00,79.0,5.93,71.0,10.31,12.17,47.59359,-54.27349
2022-12-19 22:04:00+00:00,80.0,5.74,87.0,8.64,12.17,47.59359,-54.27349
2022-12-19 22:14:01+00:00,82.0,6.44,84.0,9.31,12.17,47.59359,-54.27349
2022-12-19 22:24:01+00:00,80.0,6.56,72.0,9.51,12.17,47.59359,-54.27349
2022-12-19 22:34:01+00:00,80.0,6.45,85.0,8.84,12.17,47.59359,-54.27349
2022-12-19 22:44:01+00:00,80.0,6.91,84.0,9.73,12.17,47.59359,-54.27349
2022-12-19 22:54:01+00:00,80.0,6.22,82.0,9.53,12.17,47.59359,-54.27349
2022-12-19 23:04:01+00:00,80.0,6.87,116.0,9.98,12.17,47.59359,-54.27349
2022-12-19 23:14:01+00:00,79.0,6.28,71.0,9.48,12.09,47.59359,-54.27349
2022-12-19 23:24:01+00:00,79.0,5.98,79.0,8.33,12.09,47.59359,-54.27349
2022-12-19 23:34:01+00:00,76.0,7.29,70.0,10.19,12.09,47.59359,-54.27349
2022-12-19 23:44:01+00:00,79.0,6.99,77.0,9.78,12.09,47.59359,-54.27349
2022-12-19 23:54:01+00:00,78.0,6.12,82.0,8.85,12.09,47.59359,-54.27349
